When you browse on this site, cookies collect data to enhance your experience and personalize the content and advertising you see.
Visit our Privacy Policy to learn more. By continuing to use the site, you agree to this use of cookies and data.
  • In Latvia
  • List of Countries
  • For 7 days
  • Water Temperature
  • Weather Map
  • Weather Widgets
  • user-avatar
    Login

    Hourly Weather Freienbach

    Today, 14 December, Saturday

    Time Temperature Precipitation Wind Pressure Humidity
    00:00 +1°C° 0 mm 2 mps 708 mmHg 88%
    01:00 -1°C° 0 mm 2 mps 708 mmHg 87%
    02:00 +1°C° 0.1 mm 2 mps 707 mmHg 86%
    03:00 +1°C° 0.1 mm 3 mps 707 mmHg 85%
    04:00 +1°C° 0.1 mm 3 mps 707 mmHg 84%
    05:00 +2°C° 0.6 mm 3 mps 707 mmHg 86%
    06:00 +3°C° 0.6 mm 4 mps 707 mmHg 88%
    07:00 +5°C° 0 mm 4 mps 707 mmHg 91%
    08:00 +5°C° 0.7 mm 4 mps 708 mmHg 91%
    09:00 +6°C° 0.7 mm 5 mps 709 mmHg 90%
    10:00 +6°C° 0.7 mm 5 mps 710 mmHg 90%
    11:00 +6°C° 0.2 mm 5 mps 711 mmHg 87%
    12:00 +7°C° 0.2 mm 5 mps 711 mmHg 84%
    13:00 +7°C° 0 mm 4 mps 712 mmHg 84%
    14:00 +8°C° 0.1 mm 3 mps 712 mmHg 85%
    15:00 +7°C° 0.1 mm 3 mps 713 mmHg 85%
    16:00 +7°C° 0.1 mm 3 mps 714 mmHg 85%
    17:00 +7°C° 0 mm 3 mps 714 mmHg 83%
    18:00 +7°C° 0 mm 3 mps 715 mmHg 80%
    19:00 +7°C° 0 mm 3 mps 715 mmHg 77%
    20:00 +7°C° 0 mm 3 mps 715 mmHg 75%
    21:00 +7°C° 0 mm 3 mps 716 mmHg 73%
    22:00 +7°C° 0 mm 3 mps 716 mmHg 71%
    23:00 +5°C° 0 mm 3 mps 715 mmHg 72%

    Tomorrow, 15 December, Sunday

    Time Temperature Precipitation Wind Pressure Humidity
    00:00 +6°C° 0 mm 2 mps 715 mmHg 73%
    01:00 +6°C° 0 mm 2 mps 715 mmHg 73%
    02:00 +6°C° 0 mm 2 mps 715 mmHg 72%
    03:00 +6°C° 0 mm 2 mps 715 mmHg 70%
    04:00 +6°C° 0 mm 2 mps 715 mmHg 68%
    05:00 +6°C° 0 mm 2 mps 715 mmHg 69%
    06:00 +5°C° 0 mm 3 mps 715 mmHg 69%
    07:00 +5°C° 0 mm 3 mps 716 mmHg 70%
    08:00 +5°C° 0 mm 3 mps 716 mmHg 70%
    09:00 +7°C° 0 mm 3 mps 716 mmHg 71%
    10:00 +8°C° 0 mm 3 mps 717 mmHg 71%
    11:00 +9°C° 0 mm 2 mps 717 mmHg 73%
    12:00 +10°C° 0 mm 2 mps 717 mmHg 74%
    13:00 +10°C° 0 mm 2 mps 717 mmHg 76%
    14:00 +10°C° 0 mm 2 mps 717 mmHg 76%
    15:00 +9°C° 0 mm 2 mps 717 mmHg 76%
    16:00 +8°C° 0 mm 2 mps 718 mmHg 77%
    17:00 +7°C° 0 mm 2 mps 718 mmHg 77%
    18:00 +7°C° 0 mm 2 mps 718 mmHg 78%
    19:00 +5°C° 0 mm 3 mps 718 mmHg 79%
    20:00 +6°C° 0 mm 2 mps 718 mmHg 78%
    21:00 +5°C° 0 mm 2 mps 719 mmHg 78%
    22:00 +5°C° 0 mm 2 mps 719 mmHg 78%
    23:00 +5°C° 0 mm 2 mps 719 mmHg 78%

    Day after tomorrow, 16 December, Monday

    Time Temperature Precipitation Wind Pressure Humidity
    00:00 +5°C° 0 mm 2 mps 719 mmHg 78%
    01:00 +5°C° 0 mm 2 mps 719 mmHg 78%
    02:00 +5°C° 0 mm 2 mps 719 mmHg 79%
    03:00 +5°C° 0 mm 2 mps 719 mmHg 80%
    04:00 +5°C° 0 mm 2 mps 718 mmHg 81%
    05:00 +5°C° 0 mm 2 mps 718 mmHg 82%
    06:00 +5°C° 0 mm 2 mps 718 mmHg 82%
    07:00 +5°C° 0 mm 2 mps 718 mmHg 83%
    08:00 +6°C° 0 mm 2 mps 719 mmHg 82%
    09:00 +6°C° 0 mm 2 mps 719 mmHg 81%
    10:00 +7°C° 0 mm 2 mps 719 mmHg 80%
    11:00 +8°C° 0 mm 2 mps 719 mmHg 79%
    12:00 +9°C° 0 mm 2 mps 718 mmHg 77%
    13:00 +10°C° 0 mm 2 mps 718 mmHg 76%
    14:00 +9°C° 0 mm 2 mps 718 mmHg 78%
    15:00 +9°C° 0 mm 2 mps 718 mmHg 81%
    16:00 +8°C° 0 mm 2 mps 718 mmHg 83%
    17:00 +8°C° 0 mm 2 mps 717 mmHg 83%
    18:00 +7°C° 0 mm 3 mps 717 mmHg 84%
    19:00 +7°C° 0 mm 3 mps 717 mmHg 84%
    20:00 +7°C° 0 mm 3 mps 717 mmHg 84%
    21:00 +7°C° 0 mm 3 mps 717 mmHg 84%
    22:00 +8°C° 0 mm 3 mps 717 mmHg 84%
    23:00 +8°C° 0 mm 3 mps 717 mmHg 85%

    17 December, Tuesday

    Time Temperature Precipitation Wind Pressure Humidity
    00:00 +8°C° 0 mm 3 mps 717 mmHg 85%
    01:00 +8°C° 0 mm 3 mps 716 mmHg 85%
    02:00 +8°C° 0 mm 3 mps 716 mmHg 85%
    03:00 +8°C° 0 mm 3 mps 716 mmHg 84%
    04:00 +8°C° 0 mm 3 mps 716 mmHg 84%
    05:00 +7°C° 0 mm 3 mps 716 mmHg 84%
    06:00 +7°C° 0 mm 2 mps 716 mmHg 85%
    07:00 +7°C° 0 mm 2 mps 716 mmHg 85%
    08:00 +8°C° 0 mm 2 mps 716 mmHg 84%
    09:00 +8°C° 0 mm 2 mps 717 mmHg 83%
    10:00 +9°C° 0 mm 2 mps 717 mmHg 83%
    11:00 +9°C° 0.1 mm 2 mps 717 mmHg 81%
    12:00 +10°C° 0.1 mm 2 mps 717 mmHg 80%
    13:00 +12°C° 0.1 mm 2 mps 717 mmHg 79%
    14:00 +10°C° 0 mm 2 mps 717 mmHg 80%
    15:00 +10°C° 0 mm 2 mps 717 mmHg 82%
    16:00 +9°C° 0 mm 2 mps 717 mmHg 84%
    17:00 +8°C° 0.1 mm 2 mps 717 mmHg 84%
    18:00 +8°C° 0.1 mm 2 mps 718 mmHg 84%
    19:00 +8°C° 0.1 mm 2 mps 718 mmHg 84%
    20:00 +8°C° 0 mm 2 mps 718 mmHg 84%
    21:00 +7°C° 0 mm 2 mps 718 mmHg 84%
    22:00 +7°C° 0 mm 2 mps 719 mmHg 84%
    23:00 +7°C° 0 mm 2 mps 719 mmHg 84%

    18 December, Wednesday

    Time Temperature Precipitation Wind Pressure Humidity
    00:00 +7°C° 0 mm 2 mps 719 mmHg 84%
    01:00 +7°C° 0 mm 2 mps 719 mmHg 83%
    02:00 +7°C° 0 mm 2 mps 719 mmHg 84%
    03:00 +7°C° 0 mm 2 mps 719 mmHg 84%
    04:00 +8°C° 0 mm 1 mps 719 mmHg 84%
    05:00 +8°C° 0 mm 1 mps 719 mmHg 85%
    06:00 +8°C° 0 mm 1 mps 719 mmHg 86%
    07:00 +8°C° 0 mm 1 mps 719 mmHg 87%
    08:00 +8°C° 0 mm 1 mps 720 mmHg 86%
    09:00 +9°C° 0 mm 1 mps 720 mmHg 85%
    10:00 +9°C° 0 mm 1 mps 720 mmHg 84%
    11:00 +10°C° 0 mm 1 mps 720 mmHg 84%
    12:00 +10°C° 0 mm 1 mps 720 mmHg 83%
    13:00 +11°C° 0 mm 1 mps 720 mmHg 82%
    14:00 +10°C° 0 mm 1 mps 720 mmHg 84%
    15:00 +10°C° 0 mm 1 mps 719 mmHg 85%
    16:00 +9°C° 0 mm 1 mps 719 mmHg 87%
    17:00 +9°C° 0 mm 1 mps 719 mmHg 87%
    18:00 +8°C° 0 mm 1 mps 719 mmHg 86%
    19:00 +8°C° 0 mm 1 mps 719 mmHg 86%
    20:00 +8°C° 0 mm 1 mps 720 mmHg 84%
    21:00 +7°C° 0 mm 1 mps 720 mmHg 83%
    22:00 +7°C° 0 mm 1 mps 720 mmHg 82%
    23:00 +7°C° 0 mm 1 mps 720 mmHg 80%

    19 December, Thursday

    Time Temperature Precipitation Wind Pressure Humidity
    00:00 +7°C° 0 mm 1 mps 719 mmHg 79%
    01:00 +7°C° 0 mm 1 mps 719 mmHg 78%
    02:00 +7°C° 0 mm 1 mps 719 mmHg 77%
    03:00 +7°C° 0 mm 1 mps 718 mmHg 76%
    04:00 +7°C° 0 mm 1 mps 718 mmHg 76%
    05:00 +7°C° 0 mm 1 mps 717 mmHg 77%
    06:00 +6°C° 0 mm 1 mps 717 mmHg 78%
    07:00 +6°C° 0 mm 1 mps 717 mmHg 80%
    08:00 +7°C° 0 mm 1 mps 717 mmHg 77%
    09:00 +8°C° 0 mm 1 mps 717 mmHg 75%
    10:00 +8°C° 0 mm 1 mps 717 mmHg 72%
    11:00 +9°C° 0 mm 1 mps 716 mmHg 72%
    12:00 +10°C° 0 mm 1 mps 716 mmHg 71%
    13:00 +10°C° 0 mm 0 mps 715 mmHg 71%
    14:00 +10°C° 0 mm 1 mps 715 mmHg 75%
    15:00 +9°C° 0 mm 1 mps 714 mmHg 79%
    16:00 +8°C° 0 mm 1 mps 714 mmHg 82%
    17:00 +8°C° 0 mm 1 mps 714 mmHg 83%
    18:00 +7°C° 0 mm 1 mps 714 mmHg 84%
    19:00 +6°C° 0 mm 1 mps 713 mmHg 85%
    20:00 +6°C° 0 mm 1 mps 713 mmHg 85%
    21:00 +5°C° 0 mm 2 mps 713 mmHg 85%
    22:00 +5°C° 0 mm 2 mps 712 mmHg 85%
    23:00 +5°C° 0 mm 2 mps 712 mmHg 85%
    Show more